星链-35010 (STARLINK-35010)

导读

STARLINK-35010是美国SpaceX星链星座的一员,于2025年8月22日发射。星链项目旨在构建全球卫星互联网星座,为全球偏远地区、海洋空域等提供高速宽带网络服务。该卫星继承了星链平台设计,可参与星座组网,提升系统覆盖容量与服务能力,推动卫星互联网进一步普及。

基本信息
目录编号:
65281
目录名称:
STARLINK-35010
国际标识:
2025-184J
轨道中心:
EARTH
卫星名称:
星链-35010
卫星全名:
星链-35010 (STARLINK-35010)
卫星状态:
在轨 (已飞行295 天)
发射日期:
2025-08-22 UTC
国别 :
美国 (US)
星等 :
--
轨道信息
数据来源 国际轨道数据 AOE轨道数据
星历时间 2026-06-13T11:02:18+0800
13小时前
查看轨道信息
2026-06-09T00:00:00+0800
5天前
查看轨道信息
半长轴 6927.627km 6927.633km
偏心率 0.0001608 0.0001096
轨道倾角 97.365° 97.388°
近地点辐角 104.020° 96.090°
升交点赤经 215.916° 211.653°
平近点角 256.121° 224.946°
近地点 548.376km 548.736km
远地点 550.604km 550.256km
周期 95.639分钟 95.639分钟
每日圈数 15.056572 15.056552
详细信息
固有亮度:
5
最大亮度:
2.5
卫星平台:
Starlink V1.0
覆盖范围:
全球
运营商:
太空探索技术公司
运营商所在国:
美国
制造商(研发单位):
太空探索技术公司
制造商所在国:
美国
使用方式:
暂无
卫星简介
Starlink 计划是 SpaceX 推出的全球卫星互联网项目,通过发射低轨道卫星,为全球尤其是偏远地区提供高速、低延迟的互联网服务。自 2019 年起,Starlink 已部署数千颗卫星,旨在缩小全球数字鸿沟,推动互联网普及。该项目还为军事、航空等行业提供通信支持,带来广泛经济效益。
2D轨道图
3D轨道图
轨道高度分析图
轨道倾角分析图
轨道综合分析图
查看轨道综合分析图